Location: Chrome
(40.5765°N, 74.2163°W)
Time: 06:40:53
(UTC+00:00)

Cosmos 2322 Rocket - Pass Details

Date: 06 December 2019
Orbit: 831 x 852 km, 71.0° (Epoch: 19 January)

Event Time Altitude Azimuth Distance (km) Brightness Sun altitude
Rises 21:55:14 0° 241° (WSW) 3,367 8.2 -5.1°
Reaches altitude 10° 21:58:11 10° 256° (WSW) 2,440 6.3 -5.6°
Maximum altitude 22:02:31 23° 307° (NW) 1,725 4.2 -6.4°
Drops below altitude 10° 22:06:54 10° 358° (N) 2,459 4.4 -7.1°
Sets 22:09:54 0° 13° (NNE) 3,401 5.0 -7.7°
